Weather History for KFKL - October, 2012

Change the Weather History Date:

Friday, October 12, 2012

  Actual Average Record
Temperature  
Mean Temperature 40 °F -  
Max Temperature 48 °F 61 °F 87 °F (1928)
Min Temperature 32 °F 40 °F 27 °F (1964)
Degree Days  
Heating Degree Days 25    
Moisture  
Dew Point 30 °F    
Average Humidity 61    
Maximum Humidity 87    
Minimum Humidity 40    
Precipitation  
Precipitation 0.00 in - - ()
Sea Level Pressure  
Sea Level Pressure 30.29 in    
Wind  
Wind Speed 7 mph (NNW)    
Max Wind Speed 14 mph    
Max Gust Speed 22 mph    
Visibility 10 miles    
Events      
Averages and records for this station are not official NWS values.
T = Trace of Precipitation, MM = Missing Value Source: NWS Daily Summary

Daily Weather History Graph

Daily Weather History Graph

Search for Another Location

Airport or City:

Trip Planner

Search our weather history database for the weather conditions in past years. The results will help you decide how hot, cold, wet, or windy it might be!

Date:

Astronomy

Oct. 12, 2012 Rise Set
Actual Time 7:28 AM EDT 6:42 PM EDT
Civil Twilight 7:00 AM EDT 7:10 PM EDT
Nautical Twilight 6:28 AM EDT 7:42 PM EDT
Astronomical Twilight 5:56 AM EDT 8:14 PM EDT
Moon 4:07 AM EDT (10/12) 4:52 PM EDT (10/12)
Length of Visible Light 12h 09m
Length of Day
11h 13m
Waning Crescent, 11% of the Moon is Illuminated
Oct 12
Waning Crescent
Oct 15
New
Oct 21
First Quarter
Oct 29
Full
Nov 6
Last Quarter

Hourly Weather History & Observations

Time (EDT) Temp. Windchill Dew Point Humidity Pressure Visibility Wind Dir Wind Speed Gust Speed Precip Events Conditions
12:15 AM 44.6 °F 40.2 °F 28.4 °F 53% 30.14 in 10.0 mi SW 8.1 mph - N/A   Clear
12:35 AM 44.6 °F 40.7 °F 28.4 °F 53% 30.14 in 10.0 mi SW 6.9 mph - N/A   Clear
12:55 AM 44.6 °F 40.2 °F 28.4 °F 53% 30.14 in 10.0 mi SW 8.1 mph - N/A   Clear
1:15 AM 44.6 °F 40.2 °F 28.4 °F 53% 30.13 in 10.0 mi WSW 8.1 mph - N/A   Clear
1:35 AM 44.6 °F 40.2 °F 28.4 °F 53% 30.14 in 10.0 mi SW 8.1 mph - N/A   Partly Cloudy
1:55 AM 44.6 °F 39.7 °F 30.2 °F 57% 30.14 in 10.0 mi SW 9.2 mph - N/A   Mostly Cloudy
2:15 AM 44.6 °F 39.7 °F 30.2 °F 57% 30.13 in 10.0 mi SW 9.2 mph - N/A   Overcast
2:35 AM 44.6 °F 39.2 °F 30.2 °F 57% 30.13 in 10.0 mi SW 10.4 mph - N/A   Mostly Cloudy
2:55 AM 44.6 °F 40.2 °F 30.2 °F 57% 30.13 in 10.0 mi WSW 8.1 mph - N/A   Scattered Clouds
3:15 AM 44.6 °F 39.7 °F 30.2 °F 57% 30.12 in 10.0 mi WSW 9.2 mph - N/A   Clear
3:35 AM 44.6 °F 40.7 °F 30.2 °F 57% 30.13 in 10.0 mi WSW 6.9 mph - N/A   Clear
3:55 AM 44.6 °F 40.2 °F 30.2 °F 57% 30.14 in 10.0 mi West 8.1 mph - N/A   Mostly Cloudy
4:15 AM 44.6 °F 41.4 °F 32.0 °F 61% 30.14 in 10.0 mi West 5.8 mph - N/A   Overcast
4:35 AM 44.6 °F 42.2 °F 33.8 °F 66% 30.14 in 10.0 mi WNW 4.6 mph - N/A   Overcast
4:55 AM 44.6 °F 40.7 °F 35.6 °F 71% 30.14 in 10.0 mi NW 6.9 mph - N/A   Overcast
5:15 AM 44.6 °F 40.2 °F 37.4 °F 76% 30.15 in 10.0 mi NW 8.1 mph - N/A   Overcast
5:35 AM 44.6 °F 41.4 °F 39.2 °F 81% 30.16 in 10.0 mi NNW 5.8 mph - N/A   Overcast
5:55 AM 42.8 °F 37.5 °F 39.2 °F 87% 30.17 in 10.0 mi NNW 9.2 mph - N/A   Overcast
6:15 AM 42.8 °F 38.6 °F 37.4 °F 81% 30.18 in 10.0 mi NNW 6.9 mph - N/A   Overcast
6:55 AM 42.8 °F 38.6 °F 37.4 °F 81% 30.20 in 10.0 mi NNW 6.9 mph - N/A   Overcast
7:15 AM 42.8 °F 38.6 °F 37.4 °F 81% 30.22 in 10.0 mi NW 6.9 mph - N/A   Overcast
7:35 AM 42.8 °F 38.6 °F 37.4 °F 81% 30.22 in 10.0 mi NNW 6.9 mph - N/A   Overcast
7:55 AM 41.0 °F 37.1 °F 37.4 °F 87% 30.25 in 3.0 mi North 5.8 mph - N/A   Overcast
8:15 AM 39.2 °F 37.0 °F 35.6 °F 87% 30.25 in 10.0 mi North 3.5 mph - N/A   Mostly Cloudy
8:35 AM 39.2 °F 35.9 °F 35.6 °F 87% 30.27 in 10.0 mi NNW 4.6 mph - N/A   Overcast
8:55 AM 39.2 °F - 35.6 °F 87% 30.27 in 10.0 mi Calm Calm - N/A   Overcast
9:15 AM 41.0 °F 39.0 °F 35.6 °F 81% 30.28 in 10.0 mi NW 3.5 mph - N/A   Overcast
9:35 AM 41.0 °F 38.0 °F 35.6 °F 81% 30.29 in 10.0 mi NW 4.6 mph - N/A   Overcast
10:15 AM 44.6 °F 42.2 °F 35.6 °F 71% 30.31 in 10.0 mi NW 4.6 mph - N/A   Overcast
10:35 AM 44.6 °F 40.7 °F 33.8 °F 66% 30.32 in 10.0 mi North 6.9 mph - N/A   Mostly Cloudy
10:55 AM 44.6 °F 39.7 °F 33.8 °F 66% 30.33 in 10.0 mi NW 9.2 mph 18.4 mph N/A   Mostly Cloudy
11:15 AM 44.6 °F 40.2 °F 30.2 °F 57% 30.33 in 10.0 mi North 8.1 mph 16.1 mph N/A   Mostly Cloudy
11:35 AM 46.4 °F 41.1 °F 33.8 °F 62% 30.34 in 10.0 mi NNW 11.5 mph 18.4 mph N/A   Mostly Cloudy
11:55 AM 46.4 °F 42.4 °F 30.2 °F 53% 30.34 in 10.0 mi North 8.1 mph 16.1 mph N/A   Scattered Clouds
12:15 PM 46.4 °F 42.4 °F 28.4 °F 50% 30.35 in 10.0 mi NW 8.1 mph 17.3 mph N/A   Partly Cloudy
12:35 PM 44.6 °F 40.2 °F 26.6 °F 49% 30.36 in 10.0 mi NNW 8.1 mph 18.4 mph N/A   Mostly Cloudy
1:15 PM 48.2 °F - 28.4 °F 46% 30.36 in 10.0 mi North 6.9 mph - N/A   Mostly Cloudy
1:35 PM 46.4 °F 41.9 °F 28.4 °F 50% 30.36 in 10.0 mi NW 9.2 mph 17.3 mph N/A   Mostly Cloudy
1:55 PM 48.2 °F - 28.4 °F 46% 30.35 in 10.0 mi North 11.5 mph 19.6 mph N/A   Mostly Cloudy
2:35 PM 48.2 °F - 28.4 °F 46% 30.35 in 10.0 mi North 12.7 mph 19.6 mph N/A   Scattered Clouds
2:55 PM 48.2 °F - 26.6 °F 43% 30.36 in 10.0 mi NNE 9.2 mph 18.4 mph N/A   Partly Cloudy
3:15 PM 48.2 °F - 24.8 °F 40% 30.36 in 10.0 mi North 5.8 mph - N/A   Partly Cloudy
3:35 PM 48.2 °F - 24.8 °F 40% 30.36 in 10.0 mi NNE 13.8 mph 21.9 mph N/A   Clear
3:55 PM 48.2 °F - 24.8 °F 40% 30.36 in 10.0 mi NNW 6.9 mph - N/A   Clear
4:15 PM 48.2 °F - 24.8 °F 40% 30.36 in 10.0 mi NNW 9.2 mph - N/A   Clear
4:35 PM 48.2 °F - 24.8 °F 40% 30.37 in 10.0 mi NNE 4.6 mph - N/A   Clear
4:55 PM 46.4 °F 42.9 °F 24.8 °F 43% 30.37 in 10.0 mi North 6.9 mph - N/A   Clear
5:15 PM 46.4 °F 42.4 °F 24.8 °F 43% 30.37 in 10.0 mi North 8.1 mph - N/A   Clear
5:35 PM 46.4 °F 43.5 °F 24.8 °F 43% 30.38 in 10.0 mi North 5.8 mph - N/A   Clear
6:15 PM 44.6 °F 40.7 °F 24.8 °F 46% 30.38 in 10.0 mi NNE 6.9 mph - N/A   Clear
6:55 PM 41.0 °F 37.1 °F 24.8 °F 53% 30.39 in 10.0 mi North 5.8 mph - N/A   Clear
7:15 PM 39.2 °F - 24.8 °F 56% 30.40 in 10.0 mi Calm Calm - N/A   Clear
7:35 PM 39.2 °F 37.0 °F 24.8 °F 56% 30.41 in 10.0 mi North 3.5 mph - N/A   Clear
7:55 PM 37.4 °F 33.8 °F 24.8 °F 60% 30.41 in 10.0 mi North 4.6 mph - N/A   Clear
8:15 PM 37.4 °F 34.9 °F 24.8 °F 60% 30.41 in 10.0 mi NNE 3.5 mph - N/A   Clear
8:35 PM 37.4 °F 33.8 °F 24.8 °F 60% 30.41 in 10.0 mi NE 4.6 mph - N/A   Clear
8:55 PM 37.4 °F 33.8 °F 24.8 °F 60% 30.42 in 10.0 mi NE 4.6 mph - N/A   Clear
9:15 PM 35.6 °F 32.8 °F 24.8 °F 65% 30.43 in 10.0 mi NE 3.5 mph - N/A   Clear
9:35 PM 35.6 °F 31.7 °F 24.8 °F 65% 30.43 in 10.0 mi NE 4.6 mph - N/A   Clear
10:15 PM 35.6 °F 31.7 °F 24.8 °F 65% 30.43 in 10.0 mi ENE 4.6 mph - N/A   Clear
10:35 PM 33.8 °F 30.8 °F 26.6 °F 75% 30.43 in 10.0 mi ENE 3.5 mph - N/A   Clear
10:55 PM 32.0 °F 27.5 °F 26.6 °F 80% 30.43 in 10.0 mi East 4.6 mph - N/A   Clear
11:15 PM 33.8 °F 30.8 °F 24.8 °F 70% 30.43 in 10.0 mi East 3.5 mph - N/A   Clear
11:55 PM 32.0 °F 28.7 °F 24.8 °F 75% 30.43 in 10.0 mi ESE 3.5 mph - N/A   Clear